Find Starlink 34123

NORAD ID: 63891 Int'l Des: 2025-095 Owner: SPXS Country: US Constellation: starlink operational
LEOCIRCULAR

現在のビュー

3D地球を読み込み中...

Starlink 34123について

説明を読み込み中...

次回通過

Passes for default location (London). Set your location on the main map for personalized predictions.

高度履歴

Loading altitude history...

軌道要素

1 63891U 25095B 26158.33378663 .00003709 00000-0 14434-3 0 9997
2 63891 42.9946 30.3129 0002631 269.0902 90.9648 15.27553229 61498
Epoch: Jun 7, 2026 • Age: 40 hours

現在のステータス

高度 484.6 km
速度 7.63 km/s
衛星直下点 26.88°N, 86.88°W
打ち上げ日 May 10, 2025
運用期間 1 years
タイプ internet

技術仕様

分類 Payload
質量 575.00 kg
乾燥質量 530.00 kg
総質量 575.00 kg
長さ 0.30 m
直径 4.10 m
スパン 29.00 m
形状 Box + pan
製造者 SPXS
バスタイプ Starlink V2MO
フェーズステータス In Orbit
所有者/国 SPXS/US

Most Searched